Weather observations for the past three days for
Ortonville, Ortonville Muncipal-Martinson Field Airport
Imperial (Metric)
Date Time (cdt) Wind (mph) Vis. (mi.) Weather Sky Cond. Temperature (ºF) Relative Humidity Wind Chill (°F) Heat Index (°F) Pressure Precipitation (in)
Air Dwpt 6 hour altimeter (in) sea level (mb) 1 hr 3 hr 6 hr
Max. Min.
03 14:15 NW 3 10.00 Fair CLR 66.2 30.2 26% 29.79 0.0
03 13:55 NW 5 10.00 Fair CLR 64.4 30.2 28% 29.8 0.0
03 13:35 NW 12 10.00 Fair CLR 64.4 30.2 28% 29.82 0.0
03 13:15 NW 14 G 21 10.00 Fair CLR 64.4 33.8 32% 29.83 0.0
03 12:55 NW 6 10.00 Fair CLR 62.6 33.8 34% 29.84 0.0
03 12:35 NW 6 G 16 10.00 Fair CLR 62.6 33.8 34% 29.84 0.0
03 12:15 NW 13 G 16 10.00 Fair CLR 60.8 33.8 36% 29.85 0.0
03 11:55 NW 6 G 17 10.00 Fair CLR 60.8 33.8 36% 29.85 0.0
03 11:35 N 12 G 16 10.00 Fair CLR 60.8 35.6 39% 29.86 0.0
03 11:15 N 13 G 16 10.00 Fair CLR 60.8 35.6 39% 29.86 0.0
03 10:55 NW 5 10.00 Fair CLR 59 37.4 45% 29.86 0.0
03 10:35 NW 10 G 17 10.00 Fair CLR 57.2 37.4 48% 29.86 0.0
03 10:15 NW 12 G 18 10.00 Fair CLR 55.4 37.4 51% 29.85 0.0
03 09:55 NW 12 10.00 Fair CLR 53.6 37.4 54% 29.86 0.0
03 09:35 NW 15 10.00 Fair CLR 51.8 35.6 54% 29.86 0.0
03 09:15 NW 14 G 18 10.00 Fair CLR 51.8 37.4 58% 29.86 0.0
03 08:55 NW 13 10.00 Fair CLR 51.8 37.4 58% 29.86 0.0
03 08:35 NW 15 10.00 Fair CLR 48.2 37.4 66% 43 29.86 0.0
03 08:15 NW 12 G 20 10.00 Fair CLR 48.2 37.4 66% 44 29.86 0.0
03 07:55 NW 14 G 18 10.00 Fair CLR 46.4 37.4 71% 41 29.85 0.0
03 07:35 NW 10 G 18 10.00 Fair CLR 46.4 39.2 76% 42 29.84 0.0
03 07:15 NW 13 G 17 10.00 Fair CLR 46.4 39.2 76% 41 29.83 0.0
03 06:55 NW 10 10.00 Fair CLR 44.6 37.4 76% 40 29.82 0.0
03 06:35 NW 9 G 17 10.00 Fair CLR 44.6 39.2 81% 40 29.81 0.0
03 06:15 NW 13 G 17 10.00 Fair CLR 44.6 39.2 81% 39 29.8 0.0
03 05:55 NW 10 G 16 10.00 Fair CLR 46.4 39.2 76% 42 29.8 0.0
03 05:35 NW 13 G 17 10.00 Fair CLR 46.4 39.2 76% 41 29.79 0.0
03 05:15 NW 14 G 20 10.00 Fair CLR 46.4 39.2 76% 41 29.79 0.0
03 04:55 NW 10 G 18 10.00 Fair CLR 48.2 39.2 71% 44 29.79 0.0
03 04:35 NW 14 G 20 10.00 Fair CLR 48.2 39.2 71% 43 29.78 0.0
03 04:15 NW 17 G 23 10.00 Fair CLR 48.2 39.2 71% 42 29.78 0.0
03 03:55 NW 15 G 20 10.00 Fair CLR 50 39.2 67% 45 29.78 0.0
03 03:35 NW 13 G 20 10.00 Fair CLR 51.8 39.2 62% 29.77 0.0
03 03:15 NW 12 G 18 10.00 Fair CLR 51.8 39.2 62% 29.77 0.0
03 02:55 NW 16 10.00 Fair CLR 51.8 39.2 62% 29.76 0.0
03 02:35 NW 13 10.00 Fair CLR 51.8 39.2 62% 29.76 0.0
03 02:15 NW 14 G 18 10.00 Fair CLR 53.6 39.2 58% 29.75 0.0
03 01:55 NW 13 10.00 Fair CLR 53.6 39.2 58% 29.75 0.0
03 01:35 NW 13 G 18 10.00 Fair CLR 53.6 39.2 58% 29.75 0.0
03 01:15 NW 13 G 16 10.00 Fair CLR 55.4 39.2 55% 29.74 0.0
03 00:55 NW 13 G 20 10.00 Fair CLR 57.2 39.2 51% 29.73 0.0
03 00:35 NW 13 10.00 Fair CLR 57.2 39.2 51% 29.72 0.0
03 00:15 NW 14 G 18 10.00 Fair CLR 59 37.4 45% 29.72 0.0
02 23:55 NW 10 10.00 Fair CLR 59 37.4 45% 29.71 0.0
02 23:35 NW 10 10.00 Fair CLR 59 39.2 48% 29.71 0.0
02 23:15 W 8 10.00 Partly Cloudy SCT110 60.8 39.2 45% 29.71 0.0
02 22:55 Calm 10.00 Mostly Cloudy BKN110 62.6 39.2 42% 29.71 0.0
02 22:35 W 8 10.00 Mostly Cloudy BKN100 62.6 39.2 42% 29.71 0.0
02 22:15 Calm 10.00 Mostly Cloudy BKN100 62.6 39.2 42% 29.72 0.0
02 21:55 SW 5 10.00 Partly Cloudy SCT100 64.4 39.2 40% 29.72 0.0
02 21:35 Calm 10.00 Partly Cloudy SCT110 64.4 39.2 40% 29.71 0.0
02 21:15 W 3 10.00 Partly Cloudy SCT110 64.4 37.4 37% 29.71 0.0
02 20:55 Calm 10.00 Fair CLR 64.4 35.6 34% 29.72 0.0
02 20:35 Calm 10.00 Mostly Cloudy BKN100 64.4 32 30% 29.73 0.0
02 20:15 Calm 10.00 Overcast OVC090 64.4 32 30% 29.74 0.0
02 19:55 Calm 10.00 Mostly Cloudy BKN090 66.2 30.2 26% 29.74 0.0
02 19:35 Calm 10.00 Mostly Cloudy SCT060 BKN100 64.4 30.2 28% 29.76 0.0
02 19:15 Calm 10.00 Mostly Cloudy BKN110 66.2 28.4 24% 29.76 0.0
02 18:55 Calm 10.00 Partly Cloudy SCT110 66.2 28.4 24% 29.77 0.0
02 18:35 Calm 10.00 Mostly Cloudy BKN110 66.2 28.4 24% 29.78 0.0
02 18:15 SW 3 10.00 Partly Cloudy SCT110 68 26.6 21% 29.8 0.0
02 17:55 SW 8 G 18 10.00 Partly Cloudy SCT110 68 28.4 23% 29.81 0.0
02 17:35 SW 14 G 21 10.00 Fair CLR 68 28.4 23% 29.82 0.0
02 17:15 SW 3 G 17 10.00 Partly Cloudy SCT110 68 28.4 23% 29.83 0.0
02 16:55 SW 9 G 20 10.00 Partly Cloudy SCT110 68 28.4 23% 29.84 0.0
02 16:35 SW 16 G 22 10.00 Fair CLR 69.8 28.4 21% 29.85 0.0
02 16:15 SW 13 G 21 10.00 Fair CLR 69.8 28.4 21% 29.85 0.0
02 15:55 SW 13 G 25 10.00 Fair CLR 69.8 28.4 21% 29.87 0.0
02 15:35 W 14 G 21 10.00 Fair CLR 66.2 28.4 24% 29.88 0.0
02 15:15 W 15 G 25 10.00 Fair CLR 66.2 30.2 26% 29.89 0.0
02 14:55 SW 16 G 22 10.00 Fair CLR 68 28.4 23% 29.89 0.0
02 14:35 SW 17 G 25 10.00 Fair CLR 69.8 28.4 21% 29.9 0.0
02 14:15 W 14 G 21 10.00 Fair CLR 68 28.4 23% 29.91 0.0
02 13:55 W 14 G 23 10.00 Fair CLR 68 30.2 24% 29.92 0.0
02 13:35 W 14 G 23 10.00 Fair CLR 66.2 30.2 26% 29.93 0.0
02 13:15 W 15 G 24 10.00 Fair CLR 66.2 30.2 26% 29.94 0.0
02 12:55 W 17 G 28 10.00 Fair CLR 66.2 30.2 26% 29.94 0.0
02 12:35 W 15 G 23 10.00 Partly Cloudy SCT100 66.2 28.4 24% 29.95 0.0
02 12:15 W 12 G 25 10.00 Partly Cloudy SCT100 66.2 30.2 26% 29.96 0.0
02 11:55 W 12 G 22 10.00 Partly Cloudy SCT100 64.4 30.2 28% 29.97 0.0
02 11:35 W 16 G 23 10.00 Partly Cloudy SCT100 64.4 32 30% 29.98 0.0
02 11:15 W 16 G 22 10.00 Fair CLR 64.4 32 30% 29.99 0.0
02 10:55 W 13 G 17 10.00 Fair CLR 62.6 33.8 34% 30 0.0
02 10:35 SW 7 G 16 10.00 Fair CLR 60.8 33.8 36% 30 0.0
02 10:15 Calm 10.00 Fair CLR 59 33.8 39% 30.01 0.0
02 09:55 Calm 10.00 Fair CLR 57.2 33.8 41% 30.02 0.0
02 09:35 Calm 10.00 Fair CLR 55.4 33.8 44% 30.02 0.0
02 09:15 Calm 10.00 Fair CLR 53.6 33.8 47% 30.03 0.0
02 08:55 Calm 10.00 Fair CLR 50 33.8 54% 30.04 0.0
02 08:35 Calm 10.00 Fair CLR 46.4 33.8 62% 30.04 0.0
02 08:15 Calm 10.00 Fair CLR 42.8 32 66% 30.05 0.0
02 07:55 Calm 10.00 Fair CLR 41 30.2 66% 30.05 0.0
02 07:35 Calm 10.00 Fair CLR 39.2 28.4 65% 30.05 0.0
02 07:15 Calm 10.00 Fair CLR 37.4 30.2 75% 30.06 0.0
02 06:55 Calm 10.00 Fair CLR 35.6 28.4 75% 30.06 0.0
02 06:35 Calm 10.00 Fair CLR 35.6 28.4 75% 30.06 0.0
02 06:15 Calm 10.00 Fair CLR 35.6 28.4 75% 30.07 0.0
02 05:55 Calm 10.00 Fair CLR 35.6 28.4 75% 30.07 0.0
02 05:35 Calm 10.00 Fair CLR 35.6 28.4 75% 30.07 0.0
02 05:15 Calm 10.00 Fair CLR 35.6 28.4 75% 30.08 0.0
02 04:55 Calm 10.00 Fair CLR 37.4 28.4 70% 30.08 0.0
02 04:35 Calm 10.00 Fair CLR 35.6 26.6 70% 30.09 0.0
02 04:15 Calm 10.00 Fair CLR 37.4 26.6 65% 30.09 0.0
02 03:55 Calm 10.00 Fair CLR 35.6 26.6 70% 30.09 0.0
02 03:35 Calm 10.00 Fair CLR 37.4 26.6 65% 30.09 0.0
02 03:15 Calm 10.00 Fair CLR 37.4 26.6 65% 30.09 0.0
02 02:55 Calm 10.00 Fair CLR 37.4 26.6 65% 30.1 0.0
02 02:35 Calm 10.00 Fair CLR 37.4 26.6 65% 30.09 0.0
02 02:15 Calm 10.00 Fair CLR 39.2 26.6 61% 30.1 0.0
02 01:55 Calm 10.00 Fair CLR 39.2 28.4 65% 30.11 0.0
02 01:35 Calm 10.00 Fair CLR 39.2 28.4 65% 30.11 0.0
02 01:15 Calm 10.00 Fair CLR 39.2 28.4 65% 30.11 0.0
02 00:55 Calm 10.00 Fair CLR 39.2 28.4 65% 30.11 0.0
02 00:35 Calm 10.00 Fair CLR 39.2 28.4 65% 30.11 0.0
02 00:15 Calm 10.00 Fair CLR 41 28.4 61% 30.11 0.0
01 23:55 Calm 10.00 Fair CLR 41 28.4 61% 30.12 0.0
01 23:35 Calm 10.00 Fair CLR 42.8 30.2 61% 30.12 0.0
01 23:15 Calm 10.00 Fair CLR 42.8 28.4 57% 30.12 0.0
01 22:55 Calm 10.00 Fair CLR 44.6 28.4 53% 30.12 0.0
01 22:35 Calm 10.00 Fair CLR 42.8 26.6 53% 30.12 0.0
01 22:15 Calm 10.00 Fair CLR 44.6 26.6 49% 30.12 0.0
01 21:55 Calm 10.00 Fair CLR 44.6 26.6 49% 30.12 0.0
01 21:35 Calm 10.00 Fair CLR 44.6 28.4 53% 30.12 0.0
01 21:15 Calm 10.00 Fair CLR 46.4 28.4 50% 30.11 0.0
01 20:55 Calm 10.00 Fair CLR 46.4 26.6 46% 30.11 0.0
01 20:35 Calm 10.00 Fair CLR 48.2 26.6 43% 30.11 0.0
01 20:15 Calm 10.00 Fair CLR 48.2 26.6 43% 30.11 0.0
01 19:55 Calm 10.00 Fair CLR 51.8 26.6 38% 30.1 0.0
01 19:35 Calm 10.00 Fair CLR 51.8 24.8 35% 30.11 0.0
01 19:15 Calm 10.00 Fair CLR 51.8 26.6 38% 30.11 0.0
01 18:55 N 6 G 10 10.00 Fair CLR 51.8 26.6 38% 30.1 0.0
01 18:35 Calm 10.00 Fair CLR 51.8 26.6 38% 30.11 0.0
01 18:15 NW 5 10.00 Fair CLR 51.8 26.6 38% 30.1 0.0
01 17:55 N 6 10.00 Fair CLR 53.6 24.8 33% 30.11 0.0
01 17:35 N 5 10.00 Fair CLR 53.6 26.6 35% 30.11 0.0
01 17:15 Calm 10.00 Fair CLR 51.8 26.6 38% 30.11 0.0
01 16:55 NW 12 10.00 Partly Cloudy SCT055 51.8 26.6 38% 30.11 0.0
01 16:35 Calm 10.00 Partly Cloudy SCT055 51.8 26.6 38% 30.11 0.0
01 16:15 Calm 10.00 Fair CLR 51.8 28.4 41% 30.12 0.0
01 15:55 Calm 10.00 Partly Cloudy SCT055 51.8 26.6 38% 30.12 0.0
01 15:35 NW 9 10.00 Mostly Cloudy BKN055 51.8 28.4 41% 30.13 0.0
01 15:15 N 9 10.00 Mostly Cloudy BKN055 50 28.4 43% 47 30.13 0.0
01 14:55 Calm 10.00 Partly Cloudy SCT055 50 26.6 40% 30.13 0.0
01 14:35 Calm 10.00 Mostly Cloudy BKN055 50 28.4 43% 30.14 0.0
01 14:15 N 8 G 16 10.00 Mostly Cloudy BKN049 48.2 28.4 46% 45 30.14 0.0
01 13:55 N 10 G 16 10.00 Mostly Cloudy BKN049 48.2 28.4 46% 44 30.14 0.0
01 13:35 Calm 10.00 Partly Cloudy SCT049 48.2 28.4 46% 30.14 0.0
01 13:15 N 8 10.00 Partly Cloudy SCT047 48.2 28.4 46% 45 30.14 0.0
01 12:55 N 12 10.00 Mostly Cloudy BKN047 46.4 28.4 50% 42 30.14 0.0
01 12:35 N 5 G 17 10.00 Mostly Cloudy BKN047 44.6 28.4 53% 43 30.15 0.0
01 12:15 N 7 10.00 Mostly Cloudy BKN047 44.6 28.4 53% 41 30.15 0.0
01 11:55 N 12 10.00 Mostly Cloudy BKN047 46.4 28.4 50% 42 30.15 0.0
01 11:35 N 5 G 10 10.00 Partly Cloudy SCT045 44.6 28.4 53% 43 30.15 0.0
01 11:15 N 8 G 18 10.00 Partly Cloudy SCT045 44.6 28.4 53% 41 30.15 0.0
01 10:55 N 12 G 17 10.00 Fair CLR 44.6 30.2 57% 39 30.15 0.0
01 10:35 N 13 G 17 10.00 Fair CLR 44.6 30.2 57% 39 30.15 0.0
01 10:15 Calm 10.00 Fair CLR 42.8 30.2 61% 30.15 0.0
01 09:55 N 12 10.00 Fair CLR 41 32 70% 35 30.15 0.0
01 09:35 Calm 10.00 Fair CLR 39.2 32 75% 30.15 0.0
01 09:15 N 10 10.00 Fair CLR 39.2 30.2 70% 33 30.15 0.0
01 08:55 NW 8 10.00 Fair CLR 37.4 30.2 75% 32 30.14 0.0
01 08:35 Calm 10.00 Fair CLR 35.6 30.2 81% 30.14 0.0
01 08:15 N 10 10.00 Fair CLR 33.8 28.4 81% 26 30.14 0.0
01 07:55 NW 10 10.00 Fair CLR 33.8 28.4 81% 26 30.13 0.0
01 07:35 NW 8 10.00 Fair CLR 33.8 28.4 81% 28 30.13 0.0
01 07:15 NW 8 10.00 Fair CLR 33.8 26.6 75% 28 30.12 0.0
01 06:55 Calm 10.00 Fair CLR 32 26.6 80% 30.12 0.0
01 06:35 NW 3 10.00 Fair CLR 32 26.6 80% 30.11 0.0
01 06:15 Calm 10.00 Fair CLR 32 28.4 87% 30.11 0.0
01 05:55 Calm 10.00 Fair CLR 33.8 28.4 81% 30.11 0.0
01 05:35 Calm 10.00 Fair CLR 33.8 28.4 81% 30.1 0.0
01 05:15 NW 8 10.00 Fair CLR 33.8 26.6 75% 28 30.1 0.0
01 04:55 NW 8 10.00 Fair CLR 33.8 26.6 75% 28 30.1 0.0
01 04:35 Calm 10.00 Fair CLR 33.8 28.4 81% 30.1 0.0
01 04:15 NW 10 10.00 Fair CLR 33.8 28.4 81% 26 30.1 0.0
01 03:55 Calm 10.00 Fair CLR 33.8 28.4 81% 30.1 0.0
01 03:35 Calm 10.00 Fair CLR 33.8 26.6 75% 30.1 0.0
01 03:15 Calm 10.00 Fair CLR 33.8 28.4 81% 30.09 0.0
01 02:55 Calm 10.00 Fair CLR 33.8 28.4 81% 30.1 0.0
01 02:35 Calm 10.00 Fair CLR 35.6 28.4 75% 30.1 0.0
01 02:15 Calm 10.00 Partly Cloudy SCT060 35.6 28.4 75% 30.09 0.0
01 01:55 Calm 10.00 Fair CLR 35.6 28.4 75% 30.1 0.0
01 01:35 NW 8 10.00 Fair CLR 37.4 28.4 70% 32 30.1 0.0
01 01:15 NW 8 10.00 Partly Cloudy SCT060 37.4 28.4 70% 32 30.1 0.0
01 00:55 N 14 10.00 Mostly Cloudy BKN060 37.4 30.2 75% 30 30.1 0.0
01 00:35 N 15 10.00 Mostly Cloudy BKN060 39.2 30.2 70% 31 30.09 0.0
01 00:15 N 15 10.00 Overcast OVC060 39.2 30.2 70% 31 30.09 0.0
30 23:55 N 17 10.00 Overcast OVC060 39.2 30.2 70% 31 30.09 0.0
30 23:35 N 17 10.00 Overcast OVC060 39.2 32 75% 31 30.08 0.0
30 23:15 N 18 10.00 Overcast OVC060 41 32 70% 33 30.08 0.0
30 22:55 N 16 10.00 Overcast OVC060 41 33.8 76% 33 30.08 0.0
30 22:35 N 16 G 22 10.00 Overcast OVC060 42.8 33.8 71% 36 30.08 0.0
30 22:15 N 13 10.00 Mostly Cloudy SCT050 BKN060 42.8 35.6 76% 37 30.07 0.0
30 21:55 NW 8 10.00 Fair CLR 42.8 37.4 81% 39 30.07 0.0
30 21:35 Calm 10.00 Partly Cloudy SCT065 SCT090 42.8 37.4 81% 30.06 0.0
30 21:15 Calm 10.00 Mostly Cloudy SCT065 BKN090 42.8 39.2 87% 30.05 0.0
30 20:55 Calm 10.00 Overcast BKN065 OVC080 44.6 39.2 81% 30.05 0.0
30 20:35 Calm 10.00 Overcast BKN065 OVC080 44.6 41 87% 30.04 0.0
30 20:15 Calm 10.00 Overcast SCT060 OVC075 44.6 39.2 81% 30.03 0.0
30 19:55 Calm 10.00 Mostly Cloudy SCT033 SCT042 BKN060 46.4 39.2 76% 30.03 0.0
30 19:35 Calm 10.00 Light Rain SCT042 BKN070 OVC100 46.4 39.2 76% 30.03 0.0
30 19:15 Calm 10.00 Mostly Cloudy SCT032 SCT080 BKN100 46.4 41 82% 30.03 0.0
30 18:55 Calm 10.00 Light Rain SCT029 BKN035 46.4 41 82% 30.02 0.0
30 18:35 Calm 10.00 Light Rain BKN028 OVC034 46.4 37.4 71% 30.03 0.0
30 18:15 Calm 10.00 Light Rain SCT026 BKN040 OVC049 46.4 35.6 66% 30.02 0.0
30 17:55 NE 5 10.00 Partly Cloudy SCT038 48.2 37.4 66% 47 30.02 0.0
30 17:35 N 5 10.00 Fair CLR 48.2 37.4 66% 47 30.02 0.0
30 17:15 W 8 10.00 Partly Cloudy SCT065 SCT100 48.2 39.2 71% 45 30.02 0.0
30 16:55 Calm 10.00 Mostly Cloudy SCT027 SCT065 BKN070 48.2 41 76% 30.03 0.0
30 16:35 Calm 10.00 Light Rain SCT024 BKN029 BKN039 44.6 37.4 76% 30.04 0.0
30 16:15 NW 8 G 23 10.00 Light Rain SCT024 SCT031 BKN045 46.4 37.4 71% 43 30.05 0.0
30 15:55 Calm 10.00 Rain SCT026 BKN050 OVC065 50 35.6 58% 30.04 0.0
30 15:35 W 12 G 16 10.00 Mostly Cloudy BKN050 BKN070 53.6 33.8 47% 30.04 0.0
30 15:15 NW 9 G 22 10.00 Partly Cloudy SCT048 53.6 33.8 47% 30.04 0.0
30 14:55 W 15 G 21 10.00 Partly Cloudy SCT048 SCT055 51.8 33.8 50% 30.05 0.0
30 14:35 NW 9 G 18 10.00 Light Rain SCT048 BKN055 48.2 35.6 62% 45 30.06 0.0
Date Time (cdt) Wind (mph) Vis. (mi.) Weather Sky Cond. Air Dwpt Max. Min. Relative Humidity Wind Chill (°F) Heat Index (°F) altimeter (in) sea level (mb) 1 hr 3 hr 6 hr
6 hour
Temperature (ºF) Pressure Precipitation (in)